Waarnemingen

Advertentie
Mijn weer
Visby Flygplats, Zweden (2590): temperatuur & dauwpunt: 15.10.2018 16:00:00 - 21.10.2018 16:00:00 (CEST)Visby Flygplats, Zweden (2590): windsnelheid & windstoten: 15.10.2018 16:00:00 - 21.10.2018 16:00:00 (CEST)Visby Flygplats, Zweden (2590): windrichting: 15.10.2018 16:00:00 - 21.10.2018 16:00:00 (CEST)Visby Flygplats, Zweden (2590): luchtdruk: 15.10.2018 16:00:00 - 21.10.2018 16:00:00 (CEST)Visby Flygplats, Zweden (2590): zicht: 15.10.2018 16:00:00 - 21.10.2018 16:00:00 (CEST)Visby Flygplats, Zweden (2590): neerslag: 15.10.2018 16:00:00 - 21.10.2018 16:00:00 (CEST)
Datum & Tijd tt [°C] td [°C] ff [km/u] ff [kn] fx [km/u] fx [kn] dd ppp [hPa] vv [km] rr [mm]
21.10.2018 16:00:00 10,5 7,6 28 15 40 21 ZZW 1020,9 10 0,0
21.10.2018 15:00:00 10,8 7,3 26 14 36 19 ZZW 1021,8 10 0,0
21.10.2018 14:00:00 11,2 6,9 26 14 40 21 ZZW 1022,0 10 0,0
21.10.2018 13:00:00 11,4 7,3 29 16 43 23 ZW 1022,6 10 0,0
21.10.2018 12:00:00 11,0 7,7 26 14 32 18 ZW 1023,2 10 0,0
21.10.2018 11:00:00 10,2 8,1 26 14 32 18 ZW 1023,3 10 0,0
21.10.2018 10:00:00 9,6 7,9 21 11 25 14 ZW 1023,8 10 0,0
21.10.2018 09:00:00 7,9 7,6 15 8 22 12 ZW 1023,8 10 0,0
21.10.2018 08:00:00 3,1 2,8 13 7 14 8 ZZW 1024,1 0,4 0,0
21.10.2018 07:00:00 3,0 2,7 11 6 11 6 ZZW 1024,1 0,3 0,0
21.10.2018 06:00:00 2,6 2,3 11 6 7 4 Z 1024,1 0,2 0,0
21.10.2018 05:00:00 2,0 1,7 9 5 11 6 ZZW 1024,3 0,1 0,0
21.10.2018 04:00:00 2,2 1,9 9 5 11 6 ZZW 1024,4 0,2 0,0
21.10.2018 03:00:00 2,1 1,7 8 4 11 6 ZZW 1024,6 0,1 0,0
21.10.2018 02:00:00 1,1 0,7 9 5 4 2 Z 1024,5 0,1 0,0
21.10.2018 01:00:00 0,9 0,5 8 4 7 4 Z 1024,4 0,1 0,0
21.10.2018 00:00:00 1,8 1,2 5 3 7 4 Z 1024,4 0,1 0,0
20.10.2018 23:00:00 2,3 1,7 5 3 7 4 ZZW 1024,4 0,4 0,0
20.10.2018 22:00:00 1,4 0,8 5 3 7 4 ZZW 1024,4 4,4 0,0
20.10.2018 21:00:00 1,5 0,9 4 2 7 4 ZZW 1024,0 0,4 0,0
20.10.2018 20:00:00 3,2 2,8 5 3 7 4 WZW 1023,7 10 0,0
20.10.2018 19:00:00 3,5 2,6 5 3 7 4 WNW 1023,5 0,3 0,0
20.10.2018 18:00:00 6,3 5,1 0 0 11 6 N 1023,1 10 0,0
20.10.2018 17:00:00 8,6 6,6 9 5 14 8 W 1022,6 10 0,0
20.10.2018 16:00:00 9,7 7,1 13 7 14 8 WNW 1022,4 10 0,0
20.10.2018 15:00:00 10,0 7,8 9 5 14 8 WNW 1022,3 10 0,0
20.10.2018 14:00:00 10,0 7,4 11 6 14 8 NNW 1022,2 10 0,0
20.10.2018 13:00:00 9,9 7,5 9 5 14 8 NW 1021,9 10 0,0
20.10.2018 12:00:00 9,1 7,1 11 6 18 10 WNW 1022,0 10 0,0
20.10.2018 11:00:00 9,2 7,1 11 6 18 10 WNW 1021,8 10 0,0
20.10.2018 10:00:00 8,8 8,2 5 3 11 6 WZW 1021,3 10 0,0
20.10.2018 09:00:00 6,4 6,0 5 3 7 4 ZZW 1021,1 10 0,0
20.10.2018 08:00:00 5,6 5,2 8 4 7 4 ZZW 1020,9 10 0,0
20.10.2018 07:00:00 4,4 4,0 8 4 4 2 ZZW 1020,7 10 0,0
20.10.2018 06:00:00 4,2 3,8 5 3 7 4 Z 1020,9 10 0,0
20.10.2018 05:00:00 4,4 4,0 8 4 7 4 Z 1021,1 10 0,0
20.10.2018 04:00:00 4,4 4,0 5 3 7 4 Z 1021,4 10 0,0
20.10.2018 03:00:00 3,9 3,5 8 4 7 4 Z 1021,7 10 0,0
20.10.2018 02:00:00 4,4 3,8 8 4 11 6 ZZW 1022,1 10 0,0
20.10.2018 01:00:00 3,1 2,7 11 6 11 6 ZZW 1022,4 10 0,0
20.10.2018 00:00:00 3,0 2,4 11 6 11 6 ZZW 1022,5 10 0,0
19.10.2018 23:00:00 2,8 2,2 11 6 7 4 Z 1022,8 10 0,0
19.10.2018 22:00:00 2,0 1,4 9 5 7 4 Z 1022,8 10 0,0
19.10.2018 21:00:00 2,5 1,9 8 4 7 4 ZZW 1023,2 10 0,0
19.10.2018 20:00:00 2,5 1,8 8 4 7 4 Z 1023,1 10 0,0
19.10.2018 19:00:00 3,0 2,1 5 3 7 4 Z 1023,1 10 0,0
19.10.2018 18:00:00 5,7 4,3 5 3 11 6 WZW 1023,2 10 0,0
19.10.2018 17:00:00 8,5 5,8 9 5 14 8 W 1023,1 10 0,0
19.10.2018 16:00:00 9,8 6,1 5 3 14 8 W 1023,2 10 0,0
19.10.2018 15:00:00 9,7 6,2 9 5 14 8 W 1023,7 10 0,0
19.10.2018 14:00:00 9,5 7,3 9 5 14 8 W 1023,9 10 0,0
19.10.2018 13:00:00 10,0 6,7 11 6 14 8 W 1023,9 10 0,0
19.10.2018 12:00:00 10,2 6,3 9 5 11 6 W 1024,0 10 0,0
19.10.2018 11:00:00 9,8 6,5 8 4 11 6 WNW 1023,9 10 0,0
19.10.2018 10:00:00 9,0 7,4 8 4 11 6 WNW 1023,9 10 0,0
19.10.2018 09:00:00 6,4 6,0 4 2 7 4 W 1023,7 10 0,0
19.10.2018 08:00:00 -0,7 -1,3 4 2 4 2 Z 1023,4 9 0,0
19.10.2018 07:00:00 -0,6 -1,3 2 1 4 2 Z 1023,1 0,5 0,0
19.10.2018 06:00:00 -0,2 -1,0 2 1 4 2 Z 1023,0 10 0,0
19.10.2018 05:00:00 0,5 -0,4 4 2 7 4 Z 1022,7 10 0,0
19.10.2018 04:00:00 1,3 0,1 0 0 7 4 N 1022,5 10 0,0
19.10.2018 03:00:00 5,7 4,3 9 5 18 10 N 1022,5 10 0,0
19.10.2018 02:00:00 8,3 6,1 15 8 18 10 NNW 1022,5 10 0,0
19.10.2018 01:00:00 7,6 5,2 11 6 25 14 NNO 1022,5 10 0,0
19.10.2018 00:00:00 9,3 5,8 18 10 25 14 NNW 1021,9 10 0,0
18.10.2018 23:00:00 9,4 6,5 15 8 22 12 NNW 1021,6 10 0,0
18.10.2018 22:00:00 9,7 6,8 16 9 22 12 NW 1021,3 10 0,0
18.10.2018 21:00:00 9,8 6,9 13 7 22 12 NW 1020,6 10 0,0
18.10.2018 20:00:00 10,0 6,7 13 7 22 12 NW 1020,1 10 0,0
18.10.2018 19:00:00 10,5 6,6 13 7 22 12 NW 1019,8 10 0,0
18.10.2018 18:00:00 10,5 7,6 15 8 22 12 WNW 1019,3 10 0,0
18.10.2018 17:00:00 11,1 8,7 13 7 18 10 NW 1018,5 10 0,0
18.10.2018 16:00:00 11,7 9,9 13 7 18 10 WNW 1018,1 10 0,0
18.10.2018 15:00:00 12,1 10,3 11 6 22 12 WNW 1017,9 10 0,0
18.10.2018 14:00:00 11,8 10,4 8 4 14 8 WNW 1017,8 10 0,0
18.10.2018 13:00:00 12,0 11,2 11 6 18 10 WNW 1017,5 4,2 0,0
18.10.2018 12:00:00 12,1 11,5 11 6 18 10 W 1017,2 3,0 0,0
18.10.2018 11:00:00 11,9 11,1 11 6 14 8 WZW 1017,2 4,0 0,0
18.10.2018 10:00:00 11,9 11,1 9 5 14 8 WZW 1017,1 4,5 0,0
18.10.2018 09:00:00 11,8 11,0 11 6 18 10 WZW 1017,0 4,8 0,0
18.10.2018 08:00:00 9,7 8,9 9 5 14 8 ZW 1016,8 5 0,0
18.10.2018 07:00:00 9,6 8,5 13 7 18 10 ZZW 1016,7 8 0,0
18.10.2018 06:00:00 9,9 8,7 13 7 14 8 ZZW 1016,9 8 0,0
18.10.2018 05:00:00 10,4 8,8 15 8 18 10 ZZW 1017,2 7 0,0
18.10.2018 04:00:00 10,5 8,6 16 9 18 10 ZZW 1017,6 9 0,0
18.10.2018 03:00:00 10,7 9,1 15 8 14 8 ZZW 1018,1 7 0,0
18.10.2018 02:00:00 11,3 9,2 16 9 22 12 ZZW 1018,3 9 0,0
18.10.2018 01:00:00 11,2 8,4 16 9 22 12 ZZW 1018,8 10 0,0
18.10.2018 00:00:00 11,6 8,6 18 10 22 12 ZZW 1018,9 10 0,0
17.10.2018 23:00:00 11,3 8,9 16 9 18 10 Z 1019,2 10 0,0
17.10.2018 22:00:00 11,8 8,6 15 8 22 12 ZZW 1019,1 10 0,0
17.10.2018 21:00:00 11,9 8,6 16 9 22 12 Z 1019,3 10 0,0
17.10.2018 20:00:00 12,1 8,8 15 8 14 8 Z 1019,2 10 0,0
17.10.2018 19:00:00 11,1 8,1 13 7 14 8 Z 1019,4 10 0,0
17.10.2018 18:00:00 12,4 9,9 11 6 18 10 Z 1019,4 8 0,0
17.10.2018 17:00:00 14,5 11,3 13 7 22 12 Z 1019,5 10 0,0
17.10.2018 16:00:00 16,5 12,1 15 8 25 14 ZZW 1019,4 10 0,0
17.10.2018 15:00:00 17,1 11,1 16 9 25 14 ZW 1019,3 10 0,0
17.10.2018 14:00:00 17,2 11,9 15 8 22 12 ZZW 1019,4 10 0,0
17.10.2018 13:00:00 17,5 13,0 15 8 18 10 ZW 1019,4 10 0,0
17.10.2018 12:00:00 16,6 12,7 11 6 18 10 ZZW 1019,7 10 0,0
17.10.2018 11:00:00 14,9 11,9 11 6 18 10 ZZW 1019,9 10 0,0
17.10.2018 10:00:00 13,3 10,8 9 5 14 8 ZZW 1019,6 10 0,0
17.10.2018 09:00:00 11,0 10,1 11 6 11 6 Z 1019,4 8 0,0
17.10.2018 08:00:00 8,6 7,8 11 6 14 8 Z 1019,5 6 0,0
17.10.2018 07:00:00 7,9 7,1 11 6 11 6 Z 1019,2 4,3 0,0
17.10.2018 06:00:00 8,9 7,7 11 6 14 8 Z 1019,1 7 0,0
17.10.2018 05:00:00 9,3 8,1 11 6 11 6 Z 1018,9 10 0,0
17.10.2018 04:00:00 8,6 7,7 11 6 14 8 Z 1019,0 9 0,0
17.10.2018 03:00:00 8,3 7,1 4 2 11 6 - 1019,4 6 0,0
17.10.2018 02:00:00 9,9 8,8 11 6 11 6 Z 1019,4 8 0,0
17.10.2018 01:00:00 9,6 9,1 8 4 11 6 Z 1019,5 6 0,0
17.10.2018 00:00:00 8,8 8,0 8 4 14 8 Z 1020,0 6 0,0
16.10.2018 23:00:00 6,5 5,9 4 2 7 4 - 1020,1 10 0,0
16.10.2018 22:00:00 6,7 6,0 2 1 4 2 - 1020,1 10 0,0
16.10.2018 21:00:00 6,8 6,1 0 0 7 4 N 1020,3 10 0,0
16.10.2018 20:00:00 8,7 7,8 2 1 7 4 ZO 1020,1 10 0,0
16.10.2018 19:00:00 9,0 7,8 0 0 7 4 N 1019,6 10 0,0
16.10.2018 18:00:00 10,1 8,0 4 2 7 4 N 1019,5 10 0,0
16.10.2018 17:00:00 13,5 10,3 0 0 11 6 N 1019,1 10 0,0
16.10.2018 16:00:00 17,1 10,7 4 2 11 6 WZW 1018,9 10 0,0
16.10.2018 15:00:00 17,1 10,0 7 4 11 6 ZW 1019,0 30 0,0
16.10.2018 14:00:00 15,5 10,1 5 3 14 8 Z 1018,8 10 0,0
16.10.2018 13:00:00 12,6 10,5 8 4 18 10 WNW 1018,9 10 0,0
16.10.2018 12:00:00 12,3 9,9 15 8 18 10 W 1018,9 10 0,0
16.10.2018 11:00:00 14,2 11,0 5 3 14 8 - 1018,1 10 0,0
16.10.2018 10:00:00 12,5 10,6 9 5 14 8 ZZW 1017,7 10 0,0
16.10.2018 09:00:00 11,2 10,3 11 6 14 8 WZW 1017,7 10 0,0
16.10.2018 08:00:00 8,6 7,8 8 4 14 8 WZW 1017,4 9 0,0
16.10.2018 07:00:00 8,0 7,2 8 4 14 8 ZZW 1016,7 9 0,0
16.10.2018 06:00:00 9,4 8,3 13 7 14 8 Z 1016,5 10 0,0
16.10.2018 05:00:00 9,7 8,5 13 7 14 8 ZZW 1016,4 10 0,0
16.10.2018 04:00:00 10,0 8,3 13 7 14 8 ZZW 1016,5 10 0,0
16.10.2018 03:00:00 10,5 8,3 16 9 14 8 ZW 1016,4 10 0,0
16.10.2018 02:00:00 10,9 7,9 15 8 18 10 Z 1016,2 10 0,0
16.10.2018 01:00:00 11,6 7,9 15 8 22 12 ZZW 1016,1 10 0,0
16.10.2018 00:00:00 12,5 7,6 18 10 22 12 ZZW 1016,2 10 0,0
15.10.2018 23:00:00 12,5 6,8 16 9 22 12 Z 1016,3 10 0,0
15.10.2018 22:00:00 12,1 7,4 18 10 32 18 Z 1016,6 10 0,0
15.10.2018 21:00:00 12,3 8,2 22 12 32 18 Z 1016,7 10 0,0
15.10.2018 20:00:00 11,7 8,4 21 11 29 16 Z 1016,8 10 0,0
15.10.2018 19:00:00 12,6 8,3 24 13 29 16 Z 1016,6 10 0,0
15.10.2018 18:00:00 13,4 8,2 21 11 29 16 Z 1016,5 10 0,0
15.10.2018 17:00:00 15,4 7,9 21 11 29 16 Z 1016,4 10 0,0
15.10.2018 16:00:00 16,8 9,5 18 10 36 19 Z 1016,6 10 0,0

tt = temperatuur
td = dauwpunt
ff = windsnelheid
fx = windstoten
dd = windrichting
ppp = luchtdruk
vv = zicht
rr = neerslag

Weerstations in de omgeving